Location: Beuvrequen
(50.8014°N, 1.6652°E)
Time: 22:05:57
(UTC+00:00)

In-Cosmos 22 Rocket - Pass Details

Date: 16 October 2021
Orbit: 790 x 888 km, 81.2° (Epoch: 05 December)

Event Time Altitude Azimuth Distance (km) Brightness Sun altitude
Rises 18:50:53 0° 351° (N) 3,342 7.5 -18.5°
Reaches altitude 10° 18:53:25 10° 358° (N) 2,395 6.7 -18.9°
Maximum altitude 18:58:33 44° 70° (ENE) 1,095 4.4 -19.7°
Enters shadow 18:59:36 39° 101° (E) 1,175 4.4 -19.8°
